Miscellaneous Local Product
Issued by NWS Hastings, NE

Home | Current Version | Previous Version | Text Only | Print | Product List | Glossary On
Versions: 1 2 3 4 5 6 7 8 9 10 11 12 13 14 15 16 17 18 19 20 21 22 23 24 25 26 27 28 29 30 31 32 33 34 35 36 37 38 39 40 41 42 43 44 45 46 47 48 49 50
000
AXUS43 KGID 242102
MISGRI

GID CWA HOURLY WEATHER ROUNDUP
NATIONAL WEATHER SERVICE HASTINGS NE
400 PM CDT FRI OCT 24 2014

NOTE: "FAIR" INDICATES FEW OR NO CLOUDS BELOW 12,000 FEET WITH NO
SIGNIFICANT WEATHER AND/OR OBSTRUCTIONS TO VISIBILITY.

...SOUTH CENTRAL NEBRASKA...

CITY           SKY/WX    TMP DP  RH WIND       PRES   REMARKS
GRAND ISLAND   MOSUNNY   79  47  32 NW6       29.94
HASTINGS       SUNNY     78  45  30 W7        29.94S
KEARNEY        SUNNY     82  39  21 W7        29.95S
ORD            MOSUNNY   78  40  25 NE3       29.93F
YORK           MOSUNNY   75  50  41 NW3       29.92S
AURORA         SUNNY     77  44  31 NW5       29.93R
LEXINGTON      SUNNY     84  32  15 W12       29.97R
HOLDREGE       SUNNY     84  32  15 NW9       29.96S
HEBRON         MOSUNNY   80  52  37 W6        29.92S

...NEBRASKA PANHANDLE...

CITY           SKY/WX    TMP DP  RH WIND       PRES   REMARKS
CHADRON        SUNNY     78  32  18 CALM      29.98F
ALLIANCE       MOSUNNY   80  35  19 W15       30.01F
SCOTTSBLUFF    SUNNY     82 N/A N/A NW21G31   30.02F
SIDNEY         SUNNY     82  30  15 NW12G21   30.07S

...WESTERN AND NORTH CENTRAL NEBRASKA...

CITY           SKY/WX    TMP DP  RH WIND       PRES   REMARKS
VALENTINE      SUNNY     81  33  17 NW5       29.95S
AINSWORTH      MOSUNNY   76  32  20 CALM      29.97R
ONEILL         PTSUNNY   76  36  23 CALM      29.95R
BROKEN BOW     SUNNY     84  37  18 NW10      29.95S
IMPERIAL       SUNNY     84  31  14 N15       30.02F
NORTH PLATTE   SUNNY     84  32  15 W12       29.97S
MCCOOK         SUNNY     88  32  13 W10G17    29.98F

...EASTERN NEBRASKA...

CITY           SKY/WX    TMP DP  RH WIND       PRES   REMARKS
NORFOLK        MOSUNNY   72  46  39 CALM      29.92S
SO SIOUX CITY  MOSUNNY   77  46  33 NW8       29.89R
TEKAMAH        PTSUNNY   76  50  40 W6        29.89S
COLUMBUS       MOSUNNY   73  50  43 N5        29.93R
ALBION         PTSUNNY   73  39  28 CALM      29.94R
OMAHA EPPLEY   CLOUDY    75  58  55 CALM      29.90S
OFFUTT AFB     PTSUNNY   75  62  62 SW5       29.90R
MILLARD        PTSUNNY   74  58  56 CALM      29.90R
LINCOLN        PTSUNNY   74  57  55 SW6       29.91S
NEBRASKA CITY  MOSUNNY   75  56  51 W7        29.90S
BEATRICE       MOSUNNY   77  60  55 W10       29.91S
FALLS CITY     PTSUNNY   79  63  57 SW15      29.89F

...NORTHERN KANSAS...

CITY           SKY/WX    TMP DP  RH WIND       PRES   REMARKS
GOODLAND       SUNNY     89  26  10 VRB3      30.05F
HILL CITY      SUNNY     88  34  14 N6        29.98S
NORTON         CLEAR     88  21   8 NW12      29.97
PHILLIPSBURG   SUNNY     90  36  14 NW9       29.96R
SMITH CENTER   SUNNY     82  46  28 W3        29.96S
BELOIT         SUNNY     84  52  32 W5        29.92F
HAYS           SUNNY     88  52  29 W7        29.97S
RUSSELL        SUNNY     86  54  33 W8        29.96R
CONCORDIA      MOSUNNY   82  61  48 SW13      29.93F
SALINA         MOSUNNY   84  62  47 S13       29.95F
TOPEKA         CLOUDY    79  64  60 SW13      29.94F



USA.gov is the U.S. government's official web portal to all federal, state and local government web resources and services.